Wind_Speed
13 17 19 19 19 21 22 21 20 21 21 20 20 21 21 21 21 21 21 21 23 25 25 24 21 20 19 18 17 17 16 16 16 17 17 18 17 15 15 15 15 15 15 16 16 16 15 15 14 13 13 13 13 14 15 14 13 14 14 14 13 12 12
15 18 21 21 21 22 23 23 23 22 22 21 20 20 21 22 22 22 22 23 24 25 25 24 22 20 20 19 19 18 18 18 18 19 19 18 16 16 16 16 16 16 16 17 17 16 16 16 14 14 14 14 14 15 16 15 15 15 15 15 14 13 13
15 17 21 23 23 22 23 24 24 23 23 22 21 21 22 22 23 23 23 24 25 25 25 24 23 22 21 20 20 19 20 20 20 20 19 17 16 16 17 16 16 16 17 18 18 17 17 16 16 16 15 15 16 16 16 16 16 16 16 16 15 14 13
16 17 20 24 26 24 24 25 25 23 23 23 23 23 23 23 23 24 24 24 25 25 25 24 24 23 21 20 20 20 21 22 21 20 19 17 17 17 17 17 16 17 18 19 19 18 17 17 17 17 17 17 17 18 18 18 17 17 17 16 16 15 14
17 19 21 24 27 26 25 27 27 25 24 24 25 24 24 24 24 25 25 25 25 25 24 24 23 22 21 20 20 21 22 22 21 20 19 18 18 18 18 17 17 17 18 19 19 18 18 18 18 18 18 18 18 20 20 19 18 18 17 16 16 15 15
18 21 23 24 26 25 23 23 26 27 26 25 26 26 25 25 26 26 27 27 26 25 24 23 22 22 21 21 21 22 23 22 21 21 20 19 19 18 18 18 18 18 19 19 19 19 19 19 19 18 19 19 20 21 22 20 19 18 17 17 16 16 16
20 22 24 25 26 26 23 21 23 27 28 27 27 26 25 25 26 27 28 28 27 25 24 23 23 23 23 22 22 23 23 22 21 21 20 19 19 18 18 18 19 19 19 19 19 19 19 19 19 19 20 20 21 22 22 21 19 18 17 17 16 16 16
22 23 24 24 24 25 25 24 23 26 29 29 27 24 23 24 25 26 28 28 27 26 25 24 24 24 24 23 22 22 22 22 22 21 21 20 19 19 19 19 19 19 19 19 19 19 19 20 20 20 21 21 22 23 23 21 19 18 18 17 17 17 17
22 23 25 25 24 24 25 26 26 27 29 29 26 23 22 23 25 26 27 27 27 27 26 25 26 25 24 23 22 22 22 22 22 22 21 20 20 20 20 19 19 19 19 19 19 19 20 20 21 21 21 22 22 23 23 22 19 19 19 18 18 18 18
22 23 25 26 26 27 27 27 26 26 27 28 27 25 24 25 25 25 26 26 26 27 27 27 26 26 24 24 23 22 22 22 22 21 21 21 21 21 21 20 20 19 19 19 20 20 20 21 22 22 22 23 23 23 23 21 19 19 20 20 19 19 19
23 24 24 26 28 29 30 29 27 26 26 26 27 26 26 27 27 26 26 27 27 28 28 28 28 27 26 25 24 23 23 22 22 22 21 21 21 21 21 21 21 20 20 20 20 20 21 21 22 22 23 23 23 22 22 21 20 19 20 20 20 20 19
24 25 25 27 28 28 29 29 29 28 27 26 26 26 27 28 29 28 28 29 29 29 29 30 30 29 28 27 25 24 24 23 22 22 21 21 21 21 21 21 21 21 20 20 20 21 21 22 22 23 23 23 22 21 22 21 20 19 19 19 19 19 19
25 27 28 28 27 26 27 28 28 28 27 26 26 27 27 28 28 28 29 29 29 29 30 31 30 30 29 27 25 24 24 23 22 22 20 20 20 21 21 21 22 22 21 21 21 21 21 22 23 23 23 22 21 21 21 21 20 19 19 20 19 18 19
24 26 28 27 26 27 27 28 28 29 28 27 27 27 26 26 27 27 28 28 28 29 30 30 30 30 30 27 25 25 24 23 22 21 20 19 20 20 21 22 22 22 22 22 22 22 22 22 23 23 23 22 21 20 20 20 20 19 20 20 20 19 20
24 23 25 26 27 29 30 30 30 31 31 31 30 28 27 26 26 27 28 28 28 28 29 30 30 30 29 26 25 24 24 24 22 21 20 20 20 20 21 22 23 23 23 23 23 22 22 22 22 22 22 22 20 19 19 19 19 18 20 21 20 20 20
24 22 24 26 27 29 31 31 30 30 31 32 32 30 27 25 25 26 26 26 26 27 28 29 30 30 28 27 26 25 25 24 23 21 21 20 20 21 21 22 23 23 24 23 23 22 22 22 22 22 22 22 20 19 18 18 18 18 19 20 20 20 21
24 23 23 24 24 26 28 28 28 27 29 30 30 29 26 23 23 24 25 25 26 26 27 28 29 29 28 27 27 26 26 25 24 22 21 21 21 21 22 22 23 23 24 24 23 22 22 22 22 21 22 22 20 19 18 18 18 18 19 20 20 20 21
23 24 23 23 24 25 25 27 26 25 25 26 27 26 24 21 20 22 24 26 26 26 26 27 29 29 28 28 28 27 26 25 24 23 22 22 22 22 22 22 23 23 24 24 23 22 22 22 21 21 22 22 20 19 19 18 17 18 18 19 19 20 21
22 25 25 25 26 25 25 26 25 23 23 24 26 25 24 22 20 22 25 27 27 26 25 27 29 28 27 27 27 27 26 25 24 24 23 23 23 23 23 23 23 24 25 25 23 23 22 22 21 22 22 21 20 19 19 18 17 17 18 18 19 20 21
20 23 25 26 26 26 26 26 26 25 25 25 25 25 25 23 22 22 24 27 28 27 26 28 30 28 27 27 27 27 26 26 25 25 25 24 24 24 23 23 23 24 25 25 24 24 23 22 22 22 22 21 20 20 20 19 18 18 19 19 20 21 22
19 21 22 22 22 25 27 27 27 28 27 27 26 26 25 25 24 23 24 26 28 28 28 29 30 29 28 29 28 27 27 27 27 27 27 25 24 23 23 23 23 24 25 25 25 24 24 24 23 22 22 21 21 21 21 21 21 21 21 21 22 22 23
20 21 22 21 21 24 26 27 27 28 28 28 28 28 27 27 27 25 25 26 28 29 30 30 30 30 31 32 31 28 28 28 28 28 28 26 24 23 23 23 24 24 25 25 24 23 24 24 24 23 22 22 22 22 22 22 22 22 23 23 23 24 25
22 22 23 22 22 23 23 25 27 28 28 28 28 29 29 29 28 27 26 27 30 31 31 30 30 30 32 32 30 27 28 29 29 29 28 25 24 23 23 24 24 25 25 24 24 23 23 23 22 22 22 22 23 23 23 23 24 24 25 25 25 25 26
23 23 24 24 24 24 24 24 25 26 27 27 28 29 30 29 28 27 27 28 30 31 30 29 29 29 30 28 27 27 29 29 29 29 27 25 24 23 23 24 25 25 25 24 24 23 22 22 22 22 22 22 23 23 23 24 25 25 25 25 24 25 25
23 23 24 25 25 26 25 24 24 25 26 26 27 28 30 29 27 29 29 29 30 31 29 28 29 29 29 28 27 28 30 30 29 28 27 25 24 24 24 25 25 25 26 25 24 24 24 24 24 24 23 22 22 22 23 24 25 25 25 24 25 25 26
22 23 24 25 26 26 26 26 25 26 26 26 26 28 31 30 29 30 30 29 29 29 28 28 28 29 30 29 29 30 31 30 29 28 27 26 26 26 26 25 25 26 26 27 26 25 25 25 25 25 24 24 23 24 24 25 25 25 26 27 27 28 28
23 23 24 25 25 26 26 27 26 27 27 26 26 28 30 31 30 31 32 30 27 27 28 29 29 30 31 30 29 31 31 30 29 28 27 27 27 28 27 26 26 26 26 27 27 27 27 26 26 26 26 26 26 26 26 27 27 28 29 29 29 29 30
24 23 23 24 24 23 24 25 26 27 26 26 26 27 29 31 32 34 35 32 27 25 27 30 30 30 30 30 30 31 32 31 30 28 27 27 27 28 28 27 26 26 26 26 28 28 28 28 29 29 28 28 29 28 28 28 28 28 28 29 29 30 31
25 23 22 23 23 22 23 23 24 25 25 26 26 27 30 33 33 35 38 35 28 25 27 30 30 29 28 29 31 32 33 32 30 28 27 26 26 27 27 27 28 28 27 28 29 29 29 30 30 30 30 30 31 31 30 29 29 28 29 29 30 32 34
25 23 22 23 23 22 20 20 21 22 23 25 26 28 31 33 33 35 40 39 29 24 27 31 31 29 29 30 32 33 34 33 30 28 27 27 27 27 27 28 29 30 30 30 31 31 30 31 31 32 32 32 32 31 31 31 31 31 32 32 33 35 37
25 24 23 23 23 21 19 20 22 23 23 25 28 30 32 32 32 34 40 41 34 27 27 31 32 31 31 32 33 33 34 33 31 30 29 29 29 29 28 29 30 31 32 32 32 32 31 32 32 32 32 31 31 31 32 33 35 35 35 34 35 38 40
25 24 23 24 23 22 23 23 24 26 29 30 31 32 34 34 33 34 38 41 38 33 30 32 33 33 33 34 33 33 34 34 33 32 32 32 31 30 30 30 30 31 31 32 32 32 32 32 33 34 33 32 32 33 34 36 37 37 36 36 38 39 39
25 25 24 25 24 23 24 25 23 23 29 33 32 33 38 40 39 39 40 43 43 38 33 31 33 35 35 35 34 34 34 33 33 34 33 32 31 31 31 31 31 32 32 33 33 33 33 33 34 34 34 34 35 35 35 36 37 37 37 38 39 39 38
26 26 25 25 25 23 24 25 20 17 18 22 27 33 39 42 43 43 44 44 44 41 34 30 32 35 36 35 34 33 32 33 33 33 32 31 31 32 31 32 33 33 33 32 32 33 33 33 34 35 36 37 37 36 36 36 36 36 37 38 38 38 37
28 28 27 26 26 24 24 24 21 16 14 13 17 24 32 39 42 42 42 40 39 37 34 31 31 34 34 33 33 32 32 33 33 33 32 32 32 33 33 33 33 33 32 33 33 35 35 34 36 39 39 39 38 37 36 37 37 37 37 37 37 36 36
30 30 29 28 27 26 24 24 23 20 18 16 15 15 20 30 38 40 41 39 36 33 32 32 32 33 33 33 34 34 35 34 34 34 34 34 33 33 33 33 34 34 35 35 36 38 38 38 40 42 41 39 38 39 39 39 37 37 36 36 36 37 38
32 32 32 31 28 26 24 23 23 22 21 21 19 17 17 21 29 35 38 39 38 36 35 33 33 34 34 35 36 37 37 36 34 35 37 37 36 35 34 35 37 37 38 39 40 41 42 42 43 43 41 39 39 39 38 37 36 36 36 37 38 40 41
Wind_Direction
248 239 240 239 239 234 228 227 227 227 229 227 223 225 230 233 234 234 231 223 215 216 220 224 226 227 229 232 234 233 234 236 239 241 243 246 249 252 255 256 259 261 261 260 259 259 261 264 268 272 275 278 277 275 273 269 263 259 260 263 265 267 265
267 257 239 232 233 230 226 224 224 226 227 229 226 224 229 232 233 234 230 223 218 218 219 220 223 227 229 233 235 236 237 238 240 241 243 246 251 255 257 259 261 264 264 262 260 259 260 263 267 270 273 275 275 273 273 270 265 260 259 261 264 266 264
255 255 239 230 230 230 229 226 227 227 225 227 228 226 228 231 234 234 229 224 221 220 218 219 223 226 230 234 236 238 239 240 241 243 246 248 252 257 259 261 262 264 265 262 260 260 261 263 266 268 271 273 274 273 270 267 264 261 259 259 263 265 261
247 248 239 231 227 227 229 231 233 231 227 228 229 227 229 232 234 231 226 222 220 219 220 222 225 228 230 234 236 240 242 243 245 246 248 250 253 258 261 262 262 262 262 262 261 261 262 264 266 268 271 273 275 274 270 266 262 261 259 259 261 261 258
243 241 239 234 228 225 226 228 231 231 229 231 231 229 230 231 231 227 223 220 218 220 224 227 229 231 233 235 238 242 244 246 247 248 249 251 254 259 261 261 259 259 260 261 262 263 263 265 266 268 271 274 276 275 272 268 264 262 260 258 258 257 256
239 235 236 234 229 229 230 226 226 229 228 229 232 232 231 231 230 227 223 221 223 226 229 231 233 235 236 238 240 243 246 247 247 248 248 251 255 259 260 259 257 256 258 260 262 264 265 266 267 268 270 272 274 274 272 269 265 261 259 257 256 255 255
239 234 233 233 228 230 234 231 228 230 229 229 232 234 234 233 232 230 228 228 230 233 232 232 234 236 237 238 240 243 246 247 247 247 248 251 255 258 258 257 256 255 257 260 262 264 265 266 266 267 268 270 272 272 271 268 263 259 258 257 255 254 255
237 235 233 234 232 230 232 233 234 233 232 234 235 235 235 235 235 234 234 234 235 235 233 233 235 236 237 239 241 244 246 248 248 248 249 253 256 258 257 255 253 254 256 259 263 265 265 265 265 265 267 268 270 270 269 266 262 259 258 256 254 253 255
234 233 233 235 236 236 235 237 238 236 237 238 237 234 233 233 234 235 236 236 236 235 235 236 238 238 240 242 244 245 246 247 247 247 249 253 256 257 255 252 251 253 256 259 262 265 265 264 264 264 265 267 268 269 267 265 262 259 258 257 255 254 255
237 233 232 232 234 238 238 238 237 236 237 238 234 230 230 233 235 235 237 237 236 237 238 240 240 241 243 245 246 246 245 245 245 246 248 251 254 255 253 251 251 252 254 257 261 263 264 264 263 263 264 265 267 268 268 267 263 260 259 260 258 256 257
242 238 236 234 234 235 235 234 233 232 231 233 233 230 230 234 236 237 238 239 239 240 241 241 241 242 245 246 246 245 244 243 243 245 247 250 251 252 251 251 251 252 253 256 259 261 262 262 262 262 263 265 267 269 269 268 265 262 262 261 260 260 260
241 240 238 234 231 231 232 233 233 231 229 229 231 231 232 234 236 236 237 238 240 241 241 240 241 243 246 246 245 245 244 241 241 243 246 248 249 249 250 250 252 252 254 256 258 260 260 260 261 261 263 265 267 267 268 268 267 265 262 261 261 261 261
242 240 237 232 229 229 231 233 232 230 229 229 230 230 233 236 238 239 239 240 241 242 242 242 243 246 247 247 247 245 242 240 241 243 245 247 248 249 250 252 253 254 254 256 258 259 258 258 259 260 262 264 265 266 267 267 267 264 262 261 261 261 261
244 242 238 234 232 232 231 230 230 230 231 233 233 233 236 239 241 241 242 243 242 243 244 245 247 248 248 248 248 245 241 239 241 242 244 246 249 251 253 254 255 255 255 256 258 258 258 257 258 260 262 263 264 265 266 266 265 264 262 261 260 261 261
247 243 237 233 232 232 231 231 231 232 236 240 240 239 239 240 241 242 243 244 242 243 245 248 249 249 248 248 247 242 238 239 240 240 242 246 249 252 254 255 255 256 256 257 258 259 258 257 258 260 262 263 264 264 264 264 264 263 262 261 260 260 262
248 242 234 231 231 233 236 237 237 238 241 245 247 246 243 242 243 243 243 242 243 244 245 247 248 248 246 246 243 239 237 238 238 238 241 246 249 252 253 254 255 256 257 258 259 259 258 257 258 260 262 263 264 263 261 262 262 261 260 260 260 260 261
245 239 235 235 234 236 239 242 245 246 246 248 251 251 248 244 243 245 245 244 244 245 243 243 245 244 243 243 242 240 238 238 239 241 243 247 250 251 252 252 253 256 258 259 260 259 256 256 258 259 260 262 263 261 260 261 261 261 260 260 260 260 261
245 241 242 243 242 242 241 241 245 248 249 250 252 252 251 247 243 243 245 245 245 245 243 241 241 242 241 242 242 242 240 240 242 244 246 248 250 251 250 249 250 253 256 256 256 254 253 255 255 255 258 261 263 263 263 263 263 263 263 263 263 264 265
247 247 247 248 249 249 246 242 243 244 246 248 249 249 250 251 246 242 241 242 242 242 240 238 239 240 240 240 243 243 242 243 244 246 248 249 251 250 248 247 248 250 252 252 251 250 250 252 253 254 257 262 263 265 266 265 264 263 263 264 266 267 268
251 254 253 252 254 254 251 248 245 244 245 247 246 245 248 251 249 245 242 241 241 239 236 235 237 239 239 239 243 245 244 244 245 247 248 250 251 250 249 248 248 249 251 251 251 250 251 252 254 256 259 262 263 265 266 265 264 263 263 264 266 268 269
256 261 262 261 260 257 255 253 249 246 245 246 248 247 249 252 251 249 246 243 242 239 236 235 237 240 243 243 245 247 246 245 244 246 249 250 251 250 249 249 248 248 249 251 251 253 255 255 254 254 257 260 261 261 262 263 264 265 265 266 266 267 269
260 264 267 270 267 263 261 258 254 250 246 247 249 250 252 253 251 251 249 245 244 241 236 234 237 243 247 246 245 246 247 244 243 246 249 251 250 250 249 249 248 248 249 251 252 253 256 256 251 247 249 253 255 256 258 260 262 264 265 265 266 267 267
264 265 266 267 267 267 266 262 257 253 250 249 249 249 251 252 248 246 247 246 246 244 239 233 234 243 249 247 244 245 246 243 243 246 249 251 250 250 251 250 249 249 250 252 253 253 254 251 243 239 242 247 251 255 259 261 262 263 264 265 266 267 269
266 266 266 266 265 266 267 263 257 253 252 250 249 248 250 250 244 239 242 245 246 247 244 235 232 241 249 246 243 245 245 243 244 247 249 250 249 250 252 252 252 251 251 252 253 252 248 241 238 241 247 251 255 259 262 264 264 264 265 266 267 269 271
270 270 269 267 265 265 265 262 257 253 251 250 249 249 249 248 240 234 238 244 245 246 246 240 234 237 243 244 243 245 245 244 246 249 250 249 249 249 251 253 253 252 251 251 251 250 246 242 244 249 253 255 257 260 261 261 262 263 264 266 267 268 270
276 277 275 272 269 266 263 260 257 254 251 249 249 247 245 244 238 232 233 239 242 243 244 243 238 236 238 242 245 245 244 246 248 251 251 250 250 250 249 250 252 252 251 251 251 251 250 249 250 253 255 257 258 259 259 259 260 261 264 266 269 270 272
278 278 277 276 275 271 265 260 255 252 252 250 249 248 244 240 234 230 231 235 238 240 242 241 237 234 236 241 244 244 245 247 250 251 251 251 252 251 248 246 248 249 250 252 252 253 253 254 254 256 258 261 262 262 262 262 263 265 267 269 271 272 274
281 280 279 280 280 277 270 261 253 250 250 248 247 247 243 238 233 231 230 232 236 239 239 238 234 232 235 240 243 244 246 249 253 254 252 251 251 249 246 243 245 247 249 251 253 254 255 256 258 260 262 264 265 265 265 265 266 268 271 271 270 271 273
282 284 286 287 285 281 273 263 254 249 247 247 249 245 238 235 236 234 228 227 234 238 236 235 232 231 235 240 242 244 246 249 253 254 251 250 250 250 248 246 247 248 249 250 252 253 256 258 260 261 263 264 265 266 266 265 266 269 271 270 271 273 274
283 285 288 289 287 283 272 258 251 248 247 252 253 241 232 233 238 237 230 226 232 238 235 234 232 231 235 240 241 243 247 248 249 248 248 250 252 252 250 250 251 252 252 252 253 255 257 258 259 261 262 264 266 267 267 266 267 269 270 270 272 273 273
284 284 284 286 286 282 267 250 245 245 245 252 251 236 228 234 241 240 235 230 233 240 239 235 232 230 234 238 239 242 245 246 245 245 248 251 253 252 252 252 252 253 253 254 254 255 256 257 259 261 262 264 266 267 267 267 268 269 270 269 270 271 273
283 283 282 283 283 280 271 264 260 250 238 237 239 232 226 230 238 241 238 235 237 241 239 234 231 230 233 236 237 239 242 244 245 246 248 251 253 254 254 254 253 253 253 254 255 255 257 259 261 262 264 265 266 265 265 265 267 269 269 269 269 272 275
281 281 280 282 283 282 278 278 279 263 241 230 227 225 221 221 226 231 234 237 240 240 239 238 234 232 234 236 237 239 241 242 245 246 248 250 251 252 254 255 255 254 253 255 256 258 260 261 262 263 265 266 265 265 265 266 266 268 269 270 273 276 277
278 279 279 280 283 284 282 281 283 281 264 241 226 221 218 216 220 224 227 235 239 237 239 246 242 235 235 238 240 243 244 244 247 249 250 252 253 253 254 255 256 257 258 258 259 262 264 265 267 268 269 269 269 271 272 272 269 269 271 275 279 282 283
275 278 278 277 279 281 282 280 276 277 284 274 247 233 225 221 222 224 225 230 234 234 241 250 246 237 237 241 243 245 246 246 248 250 251 252 252 250 249 251 253 254 257 258 260 264 267 268 270 271 270 269 270 272 271 271 271 273 276 279 280 281 283
272 275 278 278 278 278 279 280 276 271 273 276 274 268 249 233 230 230 230 232 236 241 250 254 247 239 242 247 248 248 247 245 246 248 249 247 245 244 245 249 251 252 254 257 260 264 266 266 267 268 266 263 264 266 268 270 274 277 277 275 274 276 279
270 273 275 277 277 278 277 277 277 275 272 270 271 279 274 251 238 236 236 239 243 248 251 252 247 241 242 246 250 251 250 248 247 249 249 246 245 246 247 248 249 250 253 256 259 260 261 262 263 265 264 261 262 266 270 272 273 272 271 271 272 275 278
Height
5782 5782 5782 5783 5784 5784 5786 5787 5788 5788 5790 5791 5791 5791 5792 5793 5793 5794 5795 5796 5797 5797 5797 5798 5799 5800 5801 5803 5804 5805 5806 5807 5808 5809 5810 5811 5812 5812 5813 5813 5813 5813 5813 5813 5814 5814 5813 5813 5813 5812 5812 5812 5812 5811 5811 5812 5812 5813 5813 5813 5813 5814 5814
5783 5781 5781 5782 5782 5782 5783 5784 5785 5786 5786 5787 5788 5789 5790 5791 5792 5793 5794 5795 5796 5796 5796 5796 5797 5798 5799 5801 5802 5803 5804 5805 5806 5807 5808 5809 5810 5810 5811 5811 5811 5812 5812 5812 5812 5812 5812 5811 5811 5811 5811 5811 5811 5810 5810 5810 5811 5811 5812 5812 5813 5813 5813
5781 5780 5780 5780 5780 5781 5782 5782 5783 5783 5784 5784 5785 5787 5788 5789 5790 5791 5792 5794 5795 5795 5794 5794 5795 5796 5798 5799 5800 5801 5802 5803 5804 5805 5805 5806 5807 5808 5809 5809 5810 5810 5811 5811 5811 5811 5810 5810 5809 5809 5809 5810 5810 5809 5809 5809 5810 5810 5810 5811 5811 5812 5812
5779 5779 5779 5778 5779 5780 5780 5781 5781 5782 5782 5783 5783 5785 5786 5787 5788 5789 5790 5792 5793 5793 5793 5793 5793 5795 5796 5797 5798 5799 5800 5801 5802 5802 5803 5804 5805 5806 5807 5807 5808 5809 5809 5810 5810 5809 5809 5808 5808 5808 5808 5808 5808 5808 5808 5808 5808 5809 5809 5810 5810 5810 5811
5776 5776 5776 5776 5777 5777 5777 5778 5779 5780 5780 5781 5782 5783 5784 5784 5785 5786 5788 5789 5791 5791 5791 5792 5792 5793 5794 5795 5796 5797 5798 5799 5800 5800 5801 5802 5803 5804 5805 5806 5807 5807 5808 5808 5808 5808 5807 5807 5806 5806 5807 5807 5807 5807 5806 5807 5807 5808 5808 5808 5809 5809 5809
5773 5773 5773 5773 5774 5775 5775 5776 5776 5777 5778 5779 5780 5781 5782 5782 5783 5784 5786 5787 5789 5790 5790 5790 5791 5791 5792 5793 5794 5795 5796 5797 5798 5799 5800 5800 5801 5802 5803 5804 5805 5806 5806 5806 5806 5806 5805 5805 5805 5805 5805 5805 5806 5805 5805 5805 5806 5806 5807 5807 5807 5808 5808
5769 5770 5770 5770 5770 5771 5772 5773 5774 5774 5775 5776 5778 5779 5780 5781 5782 5783 5785 5786 5787 5788 5789 5789 5789 5789 5790 5791 5792 5793 5794 5795 5796 5797 5798 5799 5800 5801 5802 5802 5803 5804 5804 5805 5805 5804 5804 5803 5803 5803 5804 5804 5804 5804 5804 5804 5804 5805 5805 5806 5806 5806 5806
5764 5766 5767 5768 5768 5768 5769 5770 5771 5771 5773 5774 5775 5777 5778 5779 5780 5781 5783 5784 5786 5786 5787 5787 5788 5788 5788 5789 5790 5791 5792 5793 5793 5794 5796 5797 5798 5799 5800 5800 5801 5802 5802 5803 5802 5802 5802 5802 5801 5802 5802 5802 5803 5802 5802 5802 5803 5803 5804 5804 5804 5804 5805
5760 5762 5764 5765 5766 5767 5767 5767 5767 5768 5770 5772 5774 5775 5776 5777 5778 5779 5781 5782 5784 5784 5785 5786 5786 5786 5787 5788 5788 5789 5790 5791 5791 5792 5793 5795 5796 5797 5797 5798 5799 5800 5800 5800 5800 5800 5800 5800 5800 5800 5800 5801 5801 5801 5800 5801 5801 5802 5801 5802 5802 5803 5803
5758 5758 5760 5762 5763 5763 5764 5764 5764 5765 5767 5769 5771 5772 5773 5774 5775 5777 5779 5780 5781 5782 5783 5784 5784 5784 5785 5785 5786 5787 5788 5789 5789 5790 5791 5792 5793 5794 5795 5796 5797 5797 5798 5798 5798 5798 5798 5798 5798 5798 5798 5799 5799 5799 5799 5799 5800 5800 5800 5800 5800 5800 5801
5756 5756 5757 5759 5760 5759 5759 5760 5760 5761 5763 5765 5767 5768 5770 5771 5773 5775 5776 5778 5779 5780 5780 5781 5781 5782 5782 5782 5783 5785 5786 5787 5787 5788 5789 5790 5791 5792 5793 5794 5794 5795 5795 5795 5796 5796 5796 5796 5796 5796 5796 5796 5797 5797 5797 5797 5798 5798 5798 5798 5798 5798 5799
5753 5753 5754 5755 5755 5754 5754 5757 5758 5759 5760 5761 5763 5765 5767 5768 5770 5771 5773 5774 5776 5777 5777 5778 5778 5779 5779 5780 5781 5782 5783 5784 5785 5786 5787 5788 5790 5791 5791 5792 5792 5793 5793 5793 5793 5793 5793 5793 5793 5793 5793 5794 5794 5795 5795 5795 5795 5796 5796 5796 5796 5796 5797
5749 5749 5750 5751 5751 5750 5751 5754 5756 5758 5759 5759 5760 5762 5764 5765 5767 5768 5770 5771 5772 5773 5774 5775 5776 5776 5776 5777 5778 5779 5780 5782 5783 5784 5785 5786 5787 5788 5789 5790 5790 5790 5791 5791 5791 5791 5791 5791 5791 5791 5791 5791 5792 5792 5792 5793 5793 5793 5794 5794 5794 5794 5795
5744 5746 5748 5749 5749 5749 5749 5750 5753 5755 5757 5757 5758 5759 5761 5762 5764 5765 5766 5768 5769 5770 5771 5772 5773 5773 5774 5774 5775 5776 5777 5779 5780 5781 5782 5784 5785 5786 5786 5787 5788 5788 5788 5789 5788 5788 5789 5788 5788 5788 5788 5788 5789 5790 5790 5790 5791 5791 5791 5791 5792 5792 5793
5741 5743 5744 5746 5746 5747 5747 5747 5748 5751 5753 5754 5755 5756 5758 5759 5760 5762 5763 5764 5766 5767 5769 5770 5771 5771 5771 5772 5772 5773 5774 5776 5777 5778 5779 5780 5782 5783 5784 5784 5785 5785 5785 5785 5785 5786 5786 5786 5786 5785 5785 5785 5786 5787 5788 5788 5788 5788 5788 5789 5790 5790 5791
5738 5739 5740 5740 5742 5743 5744 5745 5746 5748 5749 5751 5752 5753 5754 5756 5757 5759 5760 5761 5763 5764 5766 5767 5768 5768 5768 5769 5769 5770 5771 5773 5774 5775 5776 5777 5779 5780 5781 5781 5782 5782 5782 5782 5782 5783 5783 5783 5783 5783 5782 5783 5783 5784 5785 5785 5786 5786 5786 5786 5787 5788 5788
5735 5735 5736 5737 5739 5741 5742 5744 5745 5746 5747 5749 5750 5751 5752 5753 5754 5756 5757 5759 5760 5761 5763 5764 5764 5765 5765 5766 5766 5767 5768 5770 5771 5772 5773 5774 5775 5776 5777 5778 5779 5779 5778 5778 5779 5780 5781 5781 5781 5780 5780 5780 5780 5782 5782 5783 5783 5784 5784 5784 5785 5785 5786
5733 5733 5734 5736 5737 5738 5740 5741 5742 5744 5745 5746 5748 5748 5749 5750 5751 5753 5754 5755 5756 5757 5759 5760 5761 5762 5762 5763 5764 5765 5766 5767 5768 5769 5770 5772 5772 5773 5774 5775 5775 5775 5775 5775 5776 5777 5778 5778 5778 5778 5777 5777 5778 5779 5780 5781 5781 5782 5782 5782 5782 5783 5784
5731 5731 5733 5733 5734 5735 5737 5738 5739 5740 5742 5743 5744 5745 5746 5746 5748 5749 5751 5752 5753 5754 5755 5757 5758 5758 5759 5761 5761 5762 5763 5765 5766 5767 5768 5769 5769 5770 5771 5772 5772 5772 5771 5772 5773 5774 5775 5776 5776 5776 5775 5775 5776 5776 5777 5778 5779 5779 5779 5780 5780 5780 5781
5729 5729 5730 5731 5732 5733 5734 5735 5737 5738 5738 5739 5740 5742 5742 5743 5744 5746 5747 5748 5749 5750 5751 5753 5754 5755 5756 5757 5758 5759 5761 5762 5763 5764 5765 5765 5766 5767 5767 5768 5769 5769 5768 5769 5770 5771 5772 5773 5773 5773 5773 5773 5774 5774 5774 5775 5775 5776 5776 5777 5777 5777 5778
5727 5727 5728 5729 5730 5730 5730 5731 5733 5734 5735 5736 5737 5739 5740 5740 5741 5742 5744 5745 5746 5747 5748 5749 5751 5752 5753 5754 5755 5756 5757 5758 5760 5761 5761 5762 5763 5763 5764 5765 5765 5766 5766 5766 5767 5769 5770 5770 5771 5771 5771 5771 5771 5772 5772 5772 5772 5773 5773 5774 5774 5775 5775
5725 5725 5726 5727 5727 5726 5726 5728 5729 5730 5731 5732 5733 5735 5736 5737 5738 5739 5740 5741 5742 5743 5745 5746 5748 5749 5750 5750 5751 5753 5754 5755 5756 5757 5758 5759 5760 5760 5761 5762 5762 5763 5763 5764 5765 5766 5766 5767 5768 5768 5769 5769 5769 5769 5769 5769 5769 5770 5770 5770 5771 5771 5771
5723 5723 5723 5723 5723 5723 5724 5725 5725 5727 5727 5728 5729 5731 5732 5732 5734 5736 5737 5738 5739 5739 5741 5743 5744 5746 5746 5746 5748 5749 5751 5752 5752 5753 5755 5755 5756 5757 5758 5758 5759 5760 5760 5761 5762 5762 5763 5764 5764 5765 5765 5766 5766 5766 5766 5766 5766 5766 5767 5767 5767 5767 5767
5721 5721 5720 5720 5720 5720 5721 5722 5722 5723 5725 5725 5726 5726 5727 5729 5731 5732 5733 5734 5735 5736 5738 5740 5741 5742 5742 5743 5745 5746 5747 5748 5749 5750 5751 5752 5753 5754 5755 5755 5756 5757 5757 5758 5758 5759 5760 5760 5761 5762 5763 5763 5764 5764 5764 5764 5763 5764 5764 5764 5764 5764 5764
5718 5718 5718 5717 5717 5717 5718 5718 5719 5720 5721 5722 5722 5723 5723 5725 5727 5728 5730 5731 5732 5733 5735 5736 5738 5739 5739 5740 5741 5742 5743 5745 5746 5747 5748 5749 5750 5750 5751 5752 5752 5754 5754 5755 5755 5755 5756 5757 5758 5759 5760 5761 5761 5761 5761 5761 5761 5761 5760 5760 5760 5760 5760
5715 5715 5714 5714 5714 5714 5714 5715 5715 5715 5716 5717 5718 5719 5720 5721 5723 5725 5726 5728 5729 5730 5731 5732 5733 5735 5736 5737 5738 5739 5740 5742 5743 5744 5745 5745 5746 5747 5748 5748 5749 5750 5751 5751 5751 5752 5753 5754 5755 5755 5756 5757 5758 5758 5758 5758 5758 5758 5758 5757 5757 5757 5757
5712 5712 5712 5711 5710 5710 5710 5711 5712 5712 5712 5714 5714 5715 5716 5718 5719 5721 5722 5724 5726 5727 5727 5728 5729 5731 5732 5734 5735 5736 5737 5739 5740 5741 5741 5742 5742 5743 5744 5745 5745 5746 5747 5747 5748 5748 5749 5750 5751 5751 5752 5753 5754 5754 5754 5754 5754 5754 5754 5754 5754 5753 5753
5709 5709 5708 5707 5707 5706 5706 5707 5708 5708 5709 5710 5711 5712 5712 5714 5715 5717 5718 5720 5722 5723 5723 5724 5725 5727 5729 5731 5732 5733 5734 5735 5736 5737 5737 5738 5739 5739 5740 5741 5741 5742 5743 5744 5744 5745 5746 5746 5747 5748 5748 5749 5749 5750 5750 5750 5750 5750 5750 5750 5750 5749 5749
5706 5705 5705 5704 5703 5703 5702 5703 5704 5704 5705 5706 5707 5709 5709 5709 5711 5713 5714 5716 5718 5719 5719 5720 5721 5724 5726 5727 5729 5730 5730 5731 5732 5733 5733 5734 5735 5736 5736 5737 5738 5738 5739 5740 5740 5741 5742 5742 5743 5744 5744 5745 5745 5745 5746 5746 5746 5746 5746 5745 5745 5745 5744
5703 5702 5702 5701 5700 5699 5699 5699 5700 5701 5702 5702 5703 5705 5705 5706 5707 5708 5710 5712 5713 5714 5715 5716 5718 5720 5722 5724 5725 5726 5726 5727 5728 5729 5730 5730 5731 5732 5733 5734 5734 5734 5735 5736 5736 5737 5738 5738 5738 5739 5739 5740 5740 5741 5741 5741 5741 5741 5741 5740 5740 5740 5739
5700 5700 5699 5698 5697 5696 5696 5697 5697 5698 5699 5699 5700 5701 5702 5702 5704 5705 5706 5708 5709 5709 5710 5712 5714 5716 5718 5719 5721 5722 5722 5723 5724 5725 5726 5726 5727 5728 5729 5730 5730 5730 5731 5731 5732 5733 5733 5734 5734 5734 5735 5735 5736 5736 5736 5736 5736 5735 5735 5735 5735 5734 5733
5697 5697 5696 5696 5695 5694 5694 5694 5694 5695 5695 5696 5696 5697 5698 5699 5700 5701 5702 5703 5705 5706 5707 5707 5709 5711 5713 5715 5716 5717 5718 5719 5720 5721 5722 5722 5723 5724 5724 5725 5726 5726 5727 5727 5728 5728 5729 5729 5730 5730 5730 5730 5731 5731 5731 5730 5730 5730 5729 5729 5729 5729 5728
5695 5694 5694 5693 5692 5692 5691 5691 5691 5690 5690 5690 5691 5692 5693 5695 5696 5697 5697 5698 5700 5703 5704 5704 5706 5707 5709 5710 5712 5713 5714 5715 5716 5717 5718 5719 5719 5720 5720 5721 5721 5721 5722 5723 5723 5724 5724 5725 5725 5725 5725 5726 5726 5726 5726 5725 5725 5724 5724 5724 5723 5723 5722
5692 5691 5691 5690 5690 5689 5688 5688 5688 5687 5686 5686 5687 5688 5689 5691 5692 5692 5692 5693 5695 5698 5700 5702 5703 5704 5705 5706 5708 5709 5710 5711 5712 5713 5714 5715 5716 5716 5717 5718 5717 5717 5718 5718 5719 5719 5719 5720 5720 5720 5720 5720 5720 5720 5720 5720 5719 5719 5719 5718 5718 5717 5716
5688 5687 5687 5687 5687 5686 5685 5685 5685 5685 5684 5684 5685 5686 5687 5688 5688 5688 5689 5690 5692 5695 5697 5698 5699 5700 5701 5703 5704 5705 5706 5707 5708 5709 5710 5711 5712 5713 5713 5713 5714 5714 5714 5714 5714 5715 5715 5715 5715 5715 5715 5715 5715 5715 5715 5714 5714 5714 5714 5713 5712 5711 5710
5684 5683 5683 5683 5683 5683 5682 5681 5682 5682 5682 5682 5682 5683 5684 5685 5686 5686 5687 5689 5690 5691 5693 5694 5695 5697 5699 5700 5701 5701 5702 5703 5704 5706 5707 5707 5708 5709 5709 5709 5709 5710 5710 5710 5711 5711 5711 5711 5711 5711 5711 5711 5711 5710 5710 5710 5710 5709 5709 5708 5707 5706 5706
5680 5679 5679 5679 5679 5679 5679 5678 5678 5678 5679 5679 5679 5680 5680 5682 5683 5684 5686 5687 5688 5688 5689 5690 5691 5692 5694 5695 5696 5697 5697 5698 5700 5701 5702 5702 5703 5704 5704 5704 5705 5705 5706 5706 5706 5706 5707 5706 5706 5706 5707 5707 5706 5706 5706 5706 5705 5705 5704 5703 5703 5702 5701